Theta_e
299 298 298 298 299 299 300 300 300 300 301 301 302 303 306 307 307 307 305 303 306 308 309 311 311 311 310 310 310 309 309 310 309 309 310 309 309 310 310 310 310 311 311 310 310 310 311 310 309 309 309 309 310 309 310 311 311 310 309 310 312 312 310 308 308 309 309 310 310 309 310 310 311 312 312 312 312 313 313 312 312 312 312 312 311 311 313
298 298 298 298 298 299 299 300 300 300 301 301 302 304 306 306 307 307 305 304 306 308 308 308 309 310 310 310 309 309 308 309 308 309 310 309 309 310 310 309 310 309 309 309 310 309 309 309 308 309 309 309 308 309 311 311 311 311 311 312 311 310 309 309 308 308 309 310 309 309 309 309 310 311 312 311 311 312 313 312 312 312 312 312 311 311 312
298 298 298 298 298 298 299 300 300 300 301 301 301 303 305 306 307 308 306 305 307 308 309 310 309 310 310 310 310 309 308 308 308 309 309 309 309 309 309 309 308 308 308 308 309 308 308 309 308 308 309 308 308 309 309 310 312 312 312 313 311 308 309 310 308 307 308 308 309 310 309 309 310 310 310 310 310 311 312 311 311 312 312 312 311 311 312
298 297 298 298 297 298 298 299 300 300 300 301 301 302 305 308 307 308 307 307 307 308 308 309 309 309 309 309 309 309 309 308 307 308 308 308 308 309 309 308 308 308 308 308 309 308 307 308 308 308 309 309 308 308 308 309 312 312 310 310 310 309 310 310 309 308 309 308 309 309 309 309 310 309 309 310 310 311 311 310 310 311 311 311 311 312 312
297 297 297 297 297 297 298 299 299 300 300 301 301 302 305 307 307 306 307 307 308 308 308 308 308 308 308 308 309 309 308 308 307 307 308 307 307 309 308 308 308 308 309 310 310 309 308 308 309 309 309 309 307 306 307 308 308 310 310 309 309 309 309 310 310 310 309 308 309 309 308 308 309 309 310 310 310 310 310 309 310 310 310 310 311 311 311
297 297 297 297 297 297 297 298 298 299 300 300 302 304 305 306 307 306 305 306 308 307 307 307 308 308 308 308 309 308 308 308 308 307 307 307 307 308 308 308 308 308 309 310 309 310 309 309 310 310 309 309 308 307 307 307 306 308 309 308 309 309 308 310 310 309 309 308 308 308 308 308 308 309 309 310 310 310 310 310 310 310 310 310 310 311 311
297 297 297 297 297 296 296 297 297 298 299 299 302 304 304 305 306 304 304 306 307 306 306 307 307 307 308 308 308 308 308 308 307 305 307 308 307 307 308 308 307 307 307 308 309 310 310 309 310 311 310 309 308 308 308 307 306 307 308 308 309 308 308 309 309 308 308 307 307 308 307 307 307 308 308 309 309 310 311 310 310 310 310 310 310 311 311
297 297 296 296 297 296 296 296 296 297 298 299 299 301 302 303 304 304 305 306 306 306 306 307 307 307 307 308 307 307 307 307 306 305 306 307 307 307 308 307 306 306 306 308 309 309 308 309 310 310 309 309 308 308 308 307 307 307 307 308 308 306 307 309 308 307 307 307 307 307 307 307 307 307 308 308 308 309 309 310 310 310 310 310 310 311 310
297 296 296 296 296 296 296 295 295 296 297 298 297 297 298 299 300 302 305 305 305 306 306 306 306 306 306 307 306 306 306 305 305 304 303 305 306 306 307 307 306 306 306 307 306 305 305 307 307 307 307 308 307 307 307 307 307 307 306 307 308 306 307 307 307 306 306 306 306 306 306 306 306 306 307 307 307 308 308 309 309 310 309 309 309 309 309
296 296 296 296 296 296 296 295 295 295 295 296 296 295 296 298 298 300 304 305 304 305 305 305 305 305 305 305 305 305 305 304 305 304 303 303 304 304 305 307 306 307 307 306 304 302 303 304 304 304 305 305 305 305 306 305 306 306 307 307 307 306 306 306 306 305 306 306 306 305 305 304 304 306 307 307 307 307 307 307 308 309 309 308 308 308 308
296 296 296 295 295 295 296 295 294 294 294 295 295 295 295 296 297 299 303 304 303 304 304 304 305 305 304 304 304 304 304 304 305 304 304 304 303 303 304 305 306 306 305 303 301 301 301 302 302 303 303 304 305 304 305 305 305 305 306 305 306 306 305 305 305 305 305 305 304 304 303 303 304 306 307 307 307 306 307 307 307 308 308 308 307 307 307
297 296 295 295 295 295 295 295 294 293 293 293 294 294 294 294 297 300 303 302 302 303 303 303 303 303 303 303 304 304 304 304 303 303 305 305 303 302 303 304 305 304 302 300 301 301 302 302 302 303 303 304 305 304 304 304 305 305 305 305 305 305 304 304 304 304 304 304 303 303 303 304 305 306 306 306 306 306 306 307 307 307 307 308 307 307 307
297 296 295 295 295 295 295 295 294 293 293 293 293 293 293 293 297 300 301 301 301 302 302 302 302 302 302 303 303 303 303 303 303 303 304 304 303 302 302 302 302 301 299 300 301 303 303 304 303 303 304 304 304 304 304 304 304 305 304 304 304 304 304 304 303 303 303 303 302 303 304 304 305 305 305 306 305 305 306 306 307 306 306 307 307 307 308
297 297 296 295 295 295 294 294 294 293 292 292 292 292 292 292 295 297 299 300 300 301 301 302 302 302 302 303 303 303 303 303 303 303 303 303 303 302 301 300 300 299 298 300 302 303 303 303 303 303 304 303 304 304 304 303 304 304 304 304 304 304 303 303 303 303 303 302 303 304 304 304 304 305 306 306 306 306 306 305 306 306 305 305 306 306 307
297 297 296 295 295 295 294 294 294 293 292 292 292 292 291 291 292 294 297 299 300 301 301 301 301 301 302 302 301 301 302 302 302 303 302 302 302 301 300 299 299 298 299 300 302 303 302 302 303 303 303 303 303 303 303 303 303 303 304 304 304 303 303 303 303 303 303 302 302 303 303 303 304 306 307 307 307 308 307 305 305 305 305 305 305 305 306
297 297 296 295 295 295 294 294 294 293 292 292 292 292 291 291 291 292 295 298 298 299 301 299 299 300 301 301 300 300 301 301 301 302 302 301 301 300 299 298 298 299 300 301 302 302 301 302 302 302 302 302 302 302 302 302 302 302 303 303 303 303 303 303 302 302 302 302 302 302 302 303 305 306 306 306 306 307 307 305 303 303 303 304 304 304 305
297 297 297 296 295 294 294 294 294 294 292 291 293 292 291 291 291 291 294 297 297 298 299 297 298 300 300 300 300 300 300 300 300 300 301 300 300 299 299 299 299 299 299 300 301 301 301 301 301 301 302 302 301 301 302 302 302 302 302 302 302 302 302 302 302 302 302 302 302 302 302 303 304 305 304 304 305 305 305 304 302 301 301 302 303 304 304
297 297 297 296 295 294 293 293 294 294 292 291 293 293 292 292 292 292 294 296 297 297 298 296 297 300 299 298 299 299 299 300 300 300 300 299 300 299 298 298 299 299 299 300 301 301 301 301 301 301 301 302 301 301 302 302 302 302 302 302 302 302 302 302 301 301 302 302 302 302 302 303 304 303 303 304 304 304 304 302 301 300 300 301 301 302 303
297 296 297 296 295 294 293 293 294 294 293 292 293 294 293 293 293 293 294 296 297 297 297 295 295 297 297 297 298 298 298 299 299 299 299 299 300 299 298 298 299 299 300 300 300 300 300 300 301 301 301 301 301 301 301 301 301 301 301 301 301 302 301 301 301 301 301 301 301 301 302 303 303 302 302 303 303 303 301 300 299 300 300 300 300 300 301
296 296 296 296 295 294 293 293 293 294 293 292 294 295 294 293 293 293 294 295 296 297 297 295 295 296 297 296 297 298 298 299 299 299 299 299 299 299 299 298 298 299 299 299 299 299 299 300 300 301 300 301 301 300 300 300 300 300 301 301 301 301 300 300 301 300 300 300 300 300 301 302 302 301 301 301 301 300 300 300 300 300 300 299 299 299 300
296 296 296 295 294 293 293 293 293 294 293 292 294 295 295 294 293 292 293 294 295 297 298 296 295 296 296 296 296 296 297 298 298 299 299 299 299 299 299 298 298 299 299 298 298 299 299 299 299 299 299 300 300 299 299 299 300 300 300 300 300 300 299 300 300 300 300 299 300 300 301 301 301 300 300 300 299 299 299 300 300 300 299 299 299 299 299
295 295 295 294 293 293 292 292 293 293 293 292 294 296 296 295 293 292 293 294 294 295 296 294 294 294 294 294 294 294 295 296 296 297 298 299 299 299 298 298 299 298 298 298 298 298 298 298 298 297 298 298 298 298 298 298 298 298 299 298 298 299 300 299 299 299 299 299 300 300 300 300 300 299 299 299 299 299 299 299 299 299 299 299 299 299 299
296 295 295 293 293 292 291 291 292 293 293 293 294 295 295 294 293 292 293 294 294 295 295 294 295 295 295 294 294 294 295 295 295 295 296 297 299 298 298 299 299 298 298 298 298 298 298 298 297 297 297 297 297 297 297 297 297 297 297 298 298 299 299 298 298 298 298 299 299 299 299 299 299 299 299 299 299 299 299 299 299 299 299 299 299 299 299
295 295 295 293 293 292 291 290 292 293 293 293 294 295 295 294 293 293 294 295 295 296 296 295 296 296 295 294 294 294 295 295 295 295 294 295 297 298 298 298 298 298 299 298 297 297 298 297 297 297 296 297 297 296 296 296 297 297 297 297 297 298 298 297 297 297 297 297 298 299 299 298 298 298 298 298 298 298 298 298 298 298 298 298 298 298 299
295 295 295 294 293 292 291 290 291 293 294 294 295 295 295 294 293 294 295 295 295 296 296 296 296 295 293 293 293 293 294 294 294 294 294 294 295 297 298 297 296 297 298 297 297 297 297 297 297 297 297 297 297 296 296 296 296 296 296 296 297 297 297 297 297 297 297 297 298 298 298 298 298 297 298 298 298 298 297 297 297 297 297 297 298 298 298
295 295 295 295 294 293 292 290 290 292 294 294 295 295 295 294 294 294 295 295 295 295 296 296 296 294 293 294 294 294 294 294 294 294 295 294 295 295 296 296 296 296 297 297 297 297 297 297 297 296 296 297 296 296 296 297 297 297 296 296 297 297 296 296 297 297 297 297 298 298 297 297 297 297 297 297 297 297 297 297 297 297 297 297 297 297 297
295 295 295 295 294 293 292 291 290 292 294 294 295 295 295 294 294 294 294 295 296 295 295 296 296 294 294 295 294 294 294 294 294 295 295 295 295 295 295 295 296 297 297 297 297 297 297 297 297 296 297 297 297 297 297 297 297 296 296 297 297 297 296 296 296 296 296 297 297 297 297 297 297 297 297 297 297 296 297 297 297 297 297 297 297 297 297
295 295 295 295 294 293 292 291 290 291 294 294 295 295 295 294 295 294 293 294 295 295 295 296 296 295 295 295 294 294 295 294 294 294 294 294 295 295 295 295 296 297 297 297 297 297 297 297 297 297 297 297 297 297 297 297 296 296 296 297 297 296 296 296 296 295 296 296 296 296 296 296 296 296 296 296 297 297 297 297 297 297 297 297 298 298 298
295 295 295 295 294 293 292 291 290 292 294 294 295 296 295 295 295 294 294 294 295 295 295 296 296 296 295 295 295 295 295 294 294 294 294 294 294 294 295 296 296 297 297 297 297 297 297 297 297 297 297 297 296 296 296 296 295 296 296 296 296 296 296 296 296 296 296 296 295 295 296 296 296 296 296 296 297 297 297 298 298 297 297 297 297 298 298
295 295 295 295 293 293 292 291 290 292 294 294 295 296 296 296 296 295 294 294 294 295 295 296 296 295 295 294 295 295 295 295 294 294 295 295 295 295 295 296 296 296 297 297 297 297 297 297 296 297 297 297 296 295 295 295 295 295 296 296 296 296 296 296 296 296 295 295 296 295 295 296 296 296 296 296 296 297 297 298 298 298 297 297 297 297 297
295 295 295 294 293 293 292 291 291 292 294 295 296 296 296 297 296 295 294 294 294 294 295 296 295 295 295 294 294 294 294 294 294 294 295 295 295 295 294 295 296 296 296 296 296 296 296 296 296 297 298 297 296 295 295 295 294 295 296 296 295 296 296 296 296 296 296 296 296 295 296 296 296 296 296 296 296 297 297 297 298 297 297 297 297 297 297
295 295 295 294 293 293 293 292 291 293 295 295 295 295 295 295 295 294 294 294 294 294 295 295 295 295 295 295 294 294 294 294 294 295 295 295 295 295 295 295 295 296 296 295 296 296 296 296 296 296 297 297 296 295 294 294 294 295 296 296 296 296 296 296 296 296 296 295 295 295 296 296 296 296 296 296 296 297 296 296 297 297 297 297 297 296 296
295 295 295 294 293 293 294 293 292 293 294 294 294 294 294 294 294 294 294 295 294 294 294 295 295 295 295 295 295 294 294 295 295 295 295 295 294 294 295 295 295 295 295 295 296 296 296 296 295 295 296 297 296 294 294 294 295 296 296 296 296 296 296 295 295 295 295 295 295 296 295 295 295 296 296 296 296 296 296 296 296 296 296 297 296 296 297
295 294 294 294 293 293 294 294 293 294 294 294 295 295 294 294 294 294 294 295 295 294 294 294 295 295 294 295 296 294 294 295 295 294 295 295 294 294 295 295 294 295 295 295 295 295 295 296 295 295 295 296 295 294 294 295 296 296 296 296 295 295 295 295 295 295 295 295 295 295 295 295 295 296 296 296 296 295 295 295 295 296 296 296 296 296 297
294 294 294 294 293 293 294 294 294 295 295 295 295 294 293 293 294 293 293 294 295 296 295 295 295 295 294 295 295 294 294 295 295 294 295 295 294 294 294 294 294 295 294 294 294 295 295 295 295 294 294 295 294 293 294 295 296 295 295 295 295 295 295 295 295 295 295 295 295 295 296 296 296 296 295 295 295 295 295 296 296 296 296 296 297 297 298
294 294 294 294 293 294 294 295 294 295 295 294 293 293 293 293 293 293 293 294 295 296 296 296 295 295 294 294 294 294 294 295 295 295 295 294 294 294 294 294 294 294 294 294 294 294 295 294 294 294 294 293 293 294 295 295 295 295 295 294 295 295 295 295 295 294 295 295 295 296 296 296 295 295 295 295 295 295 296 296 296 296 297 297 297 297 297
294 294 294 294 294 295 295 294 294 293 293 293 292 293 293 294 294 294 294 295 295 295 295 296 296 295 295 295 295 295 295 295 295 295 294 294 294 294 294 294 294 294 294 294 294 294 294 294 294 293 293 293 294 295 295 294 294 295 295 294 295 295 295 295 294 294 295 295 295 296 296 296 296 295 296 295 295 296 296 296 296 296 297 296 296 295 294
294 294 294 294 294 295 295 294 293 293 292 292 293 294 294 295 295 295 295 295 295 294 295 296 296 296 295 295 295 295 295 295 295 295 294 294 294 293 294 293 293 293 293 293 293 293 294 294 293 293 293 294 295 295 294 294 294 294 294 295 295 295 295 295 295 295 295 296 296 296 296 295 295 295 295 295 295 296 296 296 295 295 295 294 294 294 293
294 294 294 294 294 294 294 293 293 292 292 292 294 295 295 295 295 295 295 295 296 296 295 296 296 296 296 296 295 295 294 295 295 294 294 294 293 293 293 293 293 293 292 292 293 293 293 293 293 292 293 295 295 294 293 294 294 294 295 295 295 295 295 295 295 295 296 296 296 295 295 295 295 295 295 295 295 295 295 294 294 294 293 293 293 293 293
295 294 294 294 294 293 293 293 293 292 293 294 294 295 295 295 295 295 295 295 295 296 296 296 296 296 295 295 295 295 294 294 294 294 293 293 293 293 293 293 293 292 292 292 293 293 292 292 292 292 292 294 294 294 293 294 294 294 295 295 295 295 295 295 295 296 295 295 295 295 295 294 295 295 295 295 295 295 294 293 293 293 293 293 293 293 292
294 294 294 294 294 293 293 293 293 293 294 295 294 294 294 295 295 294 295 295 294 295 295 295 296 296 295 295 295 295 295 294 294 294 293 294 294 293 293 293 293 292 292 292 293 293 292 292 292 292 293 293 293 293 294 294 294 295 295 295 295 295 295 295 295 295 295 295 295 294 294 294 294 294 294 295 294 294 293 293 293 293 293 293 292 292 292
294 294 293 293 293 293 293 293 294 294 294 294 294 293 293 294 294 294 295 294 294 294 295 295 295 295 295 294 294 295 294 294 294 293 293 293 293 293 292 292 292 292 292 293 293 292 292 292 292 292 293 293 293 293 294 294 294 295 295 294 294 295 295 296 295 295 294 294 294 294 293 293 293 293 293 294 294 293 293 293 292 292 291 291 291 291 291
294 293 293 293 293 292 292 293 294 294 293 293 293 293 293 293 294 294 294 294 294 294 294 294 294 294 294 294 294 294 294 293 293 293 293 293 293 293 292 292 292 292 292 293 292 292 291 291 291 292 293 293 293 293 294 294 294 295 295 294 295 295 295 295 294 294 294 293 293 293 293 293 293 293 293 293 293 292 292 291 291 291 290 290 290 290 290
293 293 293 293 292 292 292 293 293 293 293 293 293 293 293 293 294 294 294 294 294 294 294 294 294 294 294 294 294 294 294 293 293 293 293 293 293 292 291 291 292 293 293 292 292 291 291 291 292 293 293 293 293 293 294 294 294 295 294 295 295 295 295 294 294 294 293 293 293 293 293 293 293 293 292 292 291 291 291 291 291 291 291 290 290 290 290
293 293 293 293 292 292 292 292 292 292 293 293 293 293 294 294 294 294 294 294 294 294 294 294 294 294 294 294 294 293 293 293 293 293 293 293 292 292 292 292 292 292 292 291 291 291 291 292 293 293 293 293 293 293 294 294 295 295 294 295 295 295 294 294 294 293 293 293 293 293 292 292 292 292 292 292 292 292 292 292 291 291 291 291 290 290 290
293 293 292 292 292 292 292 292 292 293 293 293 293 294 294 295 295 295 294 294 293 294 294 293 293 294 294 294 294 293 293 293 293 293 293 292 292 292 292 292 292 291 291 291 291 291 291 292 293 293 293 292 292 293 294 295 295 294 294 295 295 294 294 294 294 294 293 292 292 292 292 292 292 292 292 293 293 293 293 293 292 292 292 291 290 290 289
293 292 292 292 292 292 292 293 294 294 293 294 294 294 294 294 294 294 294 293 293 293 293 293 293 294 294 294 293 293 293 293 293 293 292 292 292 292 292 291 291 291 291 290 291 291 292 293 293 293 292 292 292 293 294 294 294 294 294 294 294 294 294 294 294 293 293 292 292 292 292 293 293 293 293 293 293 292 292 292 291 291 291 290 289 288 287
293 293 292 293 293 293 293 293 294 294 294 294 294 294 294 293 294 294 294 293 293 293 293 293 293 294 294 293 293 293 293 293 292 292 292 292 292 291 291 290 290 291 291 291 291 292 292 293 293 292 292 292 292 293 294 294 294 294 295 294 294 294 294 294 294 293 293 293 293 293 293 293 293 293 293 292 291 290 290 289 289 288 288 287 287 287 286
293 293 292 293 293 293 294 294 294 295 295 295 294 294 294 294 294 294 294 293 293 293 293 293 293 293 293 293 293 293 293 293 292 292 292 291 291 290 290 290 290 291 291 291 292 293 293 293 293 292 292 292 293 293 294 294 294 294 295 294 294 294 294 294 293 293 292 293 293 293 294 294 294 294 293 291 289 289 288 288 288 287 287 287 287 286 286
292 292 293 292 293 294 294 294 294 295 295 295 294 294 294 294 294 294 293 293 293 293 293 293 293 293 293 293 292 292 292 293 292 292 291 291 291 291 291 290 290 291 292 292 293 293 293 292 292 292 292 292 293 293 294 294 294 295 294 294 294 294 294 294 293 293 293 293 293 294 294 294 294 294 292 290 289 288 288 288 288 287 287 286 286 286 286
292 292 293 293 294 294 294 294 294 294 295 295 295 295 294 294 294 294 293 293 293 293 293 293 293 293 292 292 292 292 292 292 292 291 291 292 292 291 290 291 291 292 293 293 293 293 292 293 293 292 292 292 292 293 294 294 294 295 294 294 294 294 294 294 294 293 293 293 293 294 294 294 294 293 292 290 289 289 288 288 288 287 287 286 286 286 286
293 293 293 293 293 293 294 294 294 294 294 294 294 294 294 294 294 294 293 292 293 293 294 294 293 292 292 292 292 292 292 291 291 291 291 292 292 292 291 292 292 293 293 293 293 292 292 293 292 292 292 292 292 293 294 294 294 294 294 294 294 294 294 294 294 294 293 293 293 294 294 294 294 293 292 291 291 291 290 289 288 288 287 287 286 286 286
Wind_Speed
24 24 24 24 24 24 23 23 23 22 19 17 16 11 5 4 5 4 6 5 4 6 6 3 4 4 1 1 0 0 1 3 3 2 3 3 3 3 3 3 4 4 4 4 6 6 5 5 4 3 3 2 3 4 2 2 4 4 3 1 2 1 3 6 7 8 7 2 4 3 2 3 6 6 5 5 6 7 7 8 8 7 8 7 7 9 3
25 25 25 24 24 24 24 23 22 21 20 18 16 11 5 5 4 4 7 3 6 7 5 4 5 3 2 2 3 2 0 2 2 2 2 1 2 3 2 2 2 2 2 4 6 4 4 5 4 3 4 3 5 4 2 2 4 2 2 1 2 2 4 4 6 7 6 6 6 5 5 5 6 5 2 3 6 6 5 7 7 7 11 12 10 10 4
25 25 25 25 25 25 24 23 22 21 18 16 14 10 7 5 2 1 8 7 2 2 2 2 2 2 3 3 2 2 2 2 2 2 1 2 2 3 1 0 2 2 2 4 5 4 5 5 3 3 4 4 5 2 2 1 1 3 5 3 2 4 5 4 6 7 6 7 6 3 2 4 4 3 2 3 5 6 5 7 8 9 11 11 10 10 5
26 26 26 25 25 25 24 23 22 20 16 13 12 11 7 4 1 1 5 8 7 7 7 4 1 1 1 2 1 1 3 3 2 2 0 1 1 2 2 1 3 4 4 6 6 6 6 5 4 4 5 5 4 2 2 1 2 4 5 2 2 5 5 6 9 9 8 9 8 4 5 6 6 5 6 5 4 5 6 6 8 9 10 10 10 11 8
26 26 27 26 26 26 25 24 23 20 16 13 11 10 7 2 2 4 3 4 5 6 6 6 3 2 2 1 1 1 2 1 1 0 1 2 1 1 1 2 4 4 5 6 6 5 6 6 5 5 4 4 5 3 2 1 2 2 1 0 3 5 6 8 11 12 11 13 12 7 6 9 11 10 9 8 6 7 8 8 9 8 8 9 9 10 12
26 26 27 27 26 26 26 25 23 21 20 18 10 8 8 4 2 4 4 2 2 3 5 7 4 2 1 1 1 1 1 1 1 2 1 1 1 2 2 2 2 2 3 4 5 6 6 6 5 4 3 4 5 5 5 3 2 3 3 1 2 6 7 8 10 12 12 12 11 9 7 9 11 11 12 11 10 10 10 11 12 11 10 10 10 11 12
26 26 27 27 26 26 26 26 25 23 21 17 9 8 9 6 3 5 4 2 4 4 5 4 2 2 2 1 1 2 1 2 2 3 2 0 1 2 2 2 1 1 1 4 5 3 3 4 4 3 2 3 4 5 5 4 4 4 3 1 0 4 6 5 8 11 12 12 12 11 10 11 12 13 14 14 13 13 12 13 14 14 14 14 13 13 12
27 27 27 27 27 26 26 26 26 24 19 16 16 15 10 6 4 4 3 2 4 5 4 3 1 1 2 1 2 3 3 4 3 3 4 2 2 3 1 2 3 2 1 1 1 3 4 1 2 2 1 3 3 4 3 2 4 4 2 1 1 3 3 1 4 9 10 12 13 12 11 13 14 15 14 14 14 14 14 13 12 12 14 13 12 13 11
27 27 27 28 27 27 26 25 26 25 20 19 21 19 13 9 6 4 3 2 4 4 3 2 2 1 3 2 3 3 4 5 3 3 6 5 4 5 4 3 2 1 3 5 6 6 6 5 4 4 4 2 2 2 2 2 3 4 3 2 2 4 4 2 5 9 9 9 11 11 10 12 14 15 14 14 14 13 12 11 10 10 11 12 12 13 10
27 27 27 27 27 27 26 25 25 25 23 22 22 20 16 11 8 6 3 1 3 4 2 1 1 1 4 4 3 3 4 4 2 0 3 5 6 7 6 4 2 2 3 6 6 7 7 7 6 6 5 5 5 5 4 4 5 4 3 3 3 4 6 5 6 8 7 6 5 5 7 10 11 9 10 14 16 15 14 13 13 13 12 10 10 9 6
26 27 27 27 27 27 26 25 25 25 24 24 21 20 18 14 10 7 5 1 3 4 2 2 3 2 3 4 3 2 3 4 4 2 1 3 5 6 6 5 3 1 3 6 7 8 8 7 6 6 6 7 8 7 7 8 9 8 6 4 4 5 6 6 6 7 7 3 0 3 7 9 5 1 1 6 9 11 13 12 11 11 9 7 9 9 7
26 26 26 26 26 26 26 24 23 23 23 22 19 18 18 16 11 8 6 2 3 3 2 4 4 2 3 4 3 3 3 4 5 4 2 2 4 5 6 5 3 2 6 8 9 7 6 6 5 6 7 9 10 10 10 10 11 10 9 7 6 5 5 6 5 6 7 3 2 6 8 4 2 4 3 1 2 4 7 7 4 4 4 5 7 7 7
25 25 25 25 25 25 25 24 22 21 21 19 18 17 16 15 11 8 7 4 3 3 3 3 3 3 3 3 3 2 3 3 2 1 1 1 3 4 6 5 5 6 8 9 9 7 6 5 6 7 8 9 10 11 12 13 12 11 10 9 8 6 6 6 5 5 6 5 5 7 5 2 1 1 2 1 2 4 5 5 2 2 2 2 3 3 2
25 24 24 24 24 23 24 23 21 20 19 18 18 17 16 15 12 9 6 4 2 3 2 1 3 3 3 4 5 3 1 1 1 1 1 1 3 4 5 5 6 7 8 8 7 6 5 4 5 7 7 7 8 8 10 10 9 9 9 9 9 8 7 6 6 6 7 7 8 8 7 7 6 4 1 1 2 2 4 5 2 3 2 2 3 3 2
24 24 23 23 23 23 22 22 20 19 18 17 16 16 16 15 13 10 7 5 2 2 1 2 3 4 4 4 5 4 2 1 1 1 2 2 2 3 3 6 7 5 5 6 5 5 3 4 6 6 5 6 7 5 5 5 3 3 6 7 7 7 7 6 7 6 6 8 9 8 10 9 3 3 4 3 2 2 3 5 3 3 4 3 3 3 3
23 23 23 23 22 22 21 20 20 19 18 16 15 15 15 14 13 10 7 5 4 1 3 4 4 4 4 2 3 3 3 3 3 2 2 3 2 3 4 6 5 3 4 5 5 4 3 5 5 5 6 7 6 4 4 5 4 4 4 5 5 6 6 6 7 7 6 8 8 8 9 6 2 5 3 3 2 1 2 5 4 2 6 5 3 3 3
23 22 22 22 21 22 21 20 19 18 18 16 14 13 14 14 12 10 7 5 4 1 3 3 3 4 3 0 1 3 4 3 2 2 1 1 4 5 6 6 2 1 3 5 5 3 4 5 5 6 6 4 4 5 4 5 6 4 5 6 7 6 5 6 8 8 8 8 8 7 7 4 2 3 2 3 3 0 4 6 3 5 9 8 5 5 5
22 22 21 21 21 21 20 19 18 18 17 16 12 12 14 15 13 11 7 5 4 2 2 2 3 2 3 3 3 3 4 3 2 2 2 0 3 6 7 7 3 0 2 4 3 3 4 5 5 6 4 0 1 4 3 2 4 5 4 4 5 6 5 6 7 8 9 9 9 8 6 1 5 4 4 4 2 3 5 5 1 5 9 10 9 8 7
22 22 21 20 20 20 19 18 18 17 16 15 12 10 13 16 15 12 8 5 4 2 2 3 1 1 2 3 2 2 3 3 3 3 2 1 4 6 4 2 3 2 2 2 2 2 3 4 3 4 4 2 1 3 4 2 2 4 4 4 5 5 5 6 7 7 8 8 7 8 6 3 7 4 3 3 2 4 2 4 4 7 10 11 12 11 10
22 22 21 20 20 20 19 18 17 16 15 14 12 9 11 15 17 15 10 6 4 2 3 4 2 3 1 4 4 3 2 2 3 4 2 2 6 7 4 2 2 3 2 1 0 1 2 3 1 2 4 2 1 1 3 3 3 3 4 5 4 3 4 6 6 6 7 7 8 9 5 3 6 3 1 2 2 4 6 8 8 9 11 12 12 11 11
23 22 21 20 20 21 19 17 17 16 14 12 10 8 9 13 17 16 11 6 4 2 2 2 2 2 2 2 3 3 3 4 4 5 4 4 6 6 1 2 4 3 3 2 1 1 1 2 1 2 3 2 1 1 3 4 3 1 1 4 5 3 4 6 5 3 4 6 5 3 0 2 4 6 4 3 6 8 11 13 13 12 13 11 10 10 10
23 23 22 21 20 20 19 17 16 15 12 10 9 8 8 11 16 17 12 7 3 2 1 2 2 2 1 2 2 1 2 3 4 4 4 4 4 3 2 2 3 4 4 4 1 1 1 1 2 2 3 3 3 3 3 4 4 2 1 3 4 1 2 4 4 3 4 7 8 7 7 8 9 9 8 9 11 11 12 12 13 14 14 12 12 13 13
22 22 22 21 20 19 18 17 15 14 11 9 8 8 8 11 17 17 12 7 4 3 5 5 6 7 5 2 2 2 2 3 3 3 4 4 3 1 2 3 3 3 3 4 4 3 2 2 2 3 3 3 3 4 4 4 5 3 2 4 5 4 4 5 5 6 8 11 11 12 14 14 13 12 13 14 14 12 11 11 13 14 15 15 16 16 16
21 22 22 21 20 18 17 15 13 12 10 8 8 8 8 12 17 17 11 7 4 2 2 4 3 3 4 4 4 4 3 4 5 4 4 5 4 2 2 5 5 2 2 5 5 4 3 3 2 3 3 2 2 3 4 3 3 3 3 6 6 4 3 5 7 8 8 7 7 8 12 14 15 16 17 16 15 13 12 13 15 16 16 17 17 18 18
21 22 22 22 21 19 17 14 12 11 9 6 6 7 6 9 16 17 12 8 6 3 1 2 2 3 5 3 2 2 3 3 5 6 7 6 7 6 4 5 6 6 4 4 4 5 5 4 2 3 3 2 1 2 2 2 2 2 3 6 5 2 3 4 8 8 7 9 11 14 16 17 16 16 16 15 15 15 16 17 17 18 18 19 19 19 20
22 22 23 23 22 19 16 13 10 9 8 6 5 5 5 9 15 16 12 9 6 4 2 2 3 4 5 3 2 2 3 3 5 7 8 8 7 8 9 9 9 8 7 6 5 6 7 5 3 4 3 1 1 3 3 4 4 4 5 7 6 4 4 6 7 7 8 10 12 13 14 14 15 16 17 17 17 18 20 20 21 21 22 22 22 22 22
21 22 23 23 22 19 16 12 9 6 6 5 4 3 4 7 14 16 14 11 6 2 2 3 3 3 3 2 1 3 3 5 7 7 8 8 8 9 10 11 10 8 7 6 5 6 7 6 4 4 4 2 3 6 7 6 6 6 7 7 6 6 6 6 6 7 7 8 10 12 11 11 15 18 20 21 22 23 23 24 24 24 24 24 24 25 25
20 22 22 23 22 19 15 12 7 5 4 4 3 2 2 5 10 14 16 15 9 4 4 4 2 1 2 3 2 4 4 5 7 6 5 6 6 7 8 10 10 8 7 6 6 6 6 5 4 4 4 3 4 5 7 6 6 6 6 5 6 6 7 7 7 8 9 11 15 17 16 16 20 23 25 26 26 25 24 24 24 24 24 23 23 24 24
20 21 22 22 21 18 15 12 6 3 4 5 3 1 1 3 7 12 15 15 11 5 5 5 1 1 2 3 4 4 4 4 4 2 2 3 3 4 5 7 8 8 6 6 7 7 6 6 6 5 4 3 3 4 5 5 6 6 6 7 7 7 8 9 10 11 14 17 19 21 21 22 24 26 27 27 26 24 23 22 22 22 22 21 22 23 23
20 21 21 21 18 16 15 11 5 1 2 4 3 1 1 1 5 9 14 15 12 6 4 4 1 3 3 5 7 6 5 5 5 3 3 2 3 3 3 4 5 6 6 6 6 7 7 7 7 5 3 4 4 4 4 5 6 7 7 8 8 8 9 10 12 14 17 21 23 24 25 26 26 26 26 25 23 22 22 21 21 22 23 22 23 25 25
18 20 21 19 17 15 14 9 3 0 2 4 3 3 2 2 5 8 12 15 13 7 4 4 1 2 1 4 9 9 6 4 7 6 2 2 3 3 2 2 2 4 5 6 6 7 6 6 6 5 2 4 5 4 5 6 7 7 8 10 10 10 12 13 15 17 20 23 25 25 25 24 23 23 23 22 21 20 22 23 23 24 25 24 22 23 24
17 19 20 17 15 14 12 7 2 1 2 3 2 2 3 3 5 8 12 14 12 6 4 4 1 1 0 1 6 10 8 4 6 8 4 3 5 4 2 2 3 3 4 5 6 5 4 4 6 6 2 3 4 5 5 6 6 8 10 12 12 12 14 17 19 21 22 22 22 21 20 19 19 20 22 22 22 22 23 24 23 23 24 22 20 20 21
15 18 19 16 13 12 10 6 2 1 3 4 3 3 3 4 6 8 11 11 8 5 4 3 1 0 2 0 3 9 10 5 6 8 5 4 7 6 3 2 2 2 3 4 4 3 3 3 5 5 1 2 3 5 5 5 6 8 11 13 15 17 19 21 23 23 22 20 18 17 19 20 21 22 22 22 21 22 23 23 22 21 21 20 19 20 20
15 16 17 14 12 10 8 6 3 2 3 3 3 3 5 6 7 9 9 8 5 4 4 3 2 1 2 1 1 8 11 7 7 9 7 6 8 7 4 3 2 2 2 3 4 4 4 4 6 5 2 2 3 5 4 5 7 10 14 17 19 22 23 24 24 22 21 19 17 18 20 22 22 21 20 19 19 20 20 19 19 19 19 19 19 18 17
15 15 15 13 11 8 6 5 3 2 2 2 3 6 8 8 8 9 8 5 3 2 2 2 2 2 3 1 2 7 10 7 6 8 7 6 7 6 5 5 3 1 1 4 4 5 3 3 5 5 2 1 3 3 3 6 10 15 18 20 22 24 24 24 23 21 19 18 18 18 20 20 19 18 18 18 17 17 16 16 16 16 17 17 16 15 15
16 15 14 12 10 7 5 3 2 1 1 4 6 7 7 6 5 6 5 3 1 1 1 2 2 2 4 3 3 7 9 7 6 7 6 6 5 5 5 5 3 2 2 4 5 3 2 2 3 4 3 2 3 1 3 10 15 17 20 22 22 21 20 20 20 19 18 18 18 18 18 17 16 17 17 17 15 15 15 15 14 14 14 14 13 12 11
17 16 14 11 9 5 2 3 4 4 5 6 6 5 4 3 2 2 2 1 1 1 2 3 1 3 3 3 3 6 7 7 8 8 6 6 6 5 4 4 3 3 3 4 2 3 3 2 3 5 4 3 2 1 6 13 16 18 21 22 19 17 16 16 16 16 17 17 16 16 15 15 16 17 17 16 14 14 13 12 12 12 12 9 7 6 5
15 14 13 11 7 3 2 5 6 6 5 4 3 2 2 2 1 1 1 1 2 1 1 3 2 2 1 3 4 5 5 7 8 7 5 5 6 4 3 3 3 3 4 2 2 3 4 3 2 4 4 1 0 4 11 16 17 19 21 19 16 15 15 15 14 14 16 17 17 17 17 17 17 17 16 14 14 13 10 8 7 7 5 3 4 4 5
14 14 15 12 7 4 6 8 7 4 3 2 2 1 1 1 1 2 1 2 2 1 2 2 1 2 2 4 5 5 5 7 8 6 5 5 4 3 4 3 2 2 4 2 2 2 5 3 2 4 3 1 1 9 16 17 18 20 20 17 14 14 14 13 13 14 16 17 18 18 17 17 17 17 16 14 12 9 5 3 3 3 4 5 7 9 10
13 15 15 12 9 8 9 8 5 1 0 1 1 1 2 2 1 0 1 2 2 2 1 2 2 2 2 4 4 4 5 6 6 6 6 4 2 3 4 4 2 3 5 2 2 2 5 4 3 4 3 2 7 15 17 17 19 21 18 14 13 13 12 13 15 15 16 17 16 15 14 14 13 13 11 8 4 1 3 4 5 6 8 10 14 16 18
14 15 14 13 12 10 7 4 2 2 1 1 1 1 2 1 0 0 2 2 1 1 0 2 3 2 1 2 4 5 6 6 4 5 5 3 2 3 5 3 2 3 4 1 2 3 4 4 4 4 3 6 12 17 17 17 20 20 16 13 14 13 13 15 16 16 16 15 12 10 9 8 7 5 2 1 3 4 6 8 11 14 17 18 20 21 21
16 17 16 14 11 7 3 1 0 1 1 1 1 1 1 1 1 1 2 1 1 1 1 1 4 6 6 6 6 6 6 5 4 4 4 3 1 2 4 3 1 3 3 2 3 4 4 4 5 4 4 10 15 17 17 19 20 17 14 14 15 14 14 15 15 14 12 10 7 5 4 3 3 4 4 6 9 11 14 16 18 20 21 21 21 20 19
17 17 14 10 6 3 2 0 1 1 1 1 1 1 1 2 1 1 1 1 1 2 3 3 5 7 7 6 5 5 5 4 4 4 4 3 2 2 3 3 2 2 3 3 4 4 3 4 5 5 7 12 15 16 17 19 17 14 14 15 14 13 14 13 11 9 8 6 4 3 3 5 7 9 11 13 16 18 20 20 20 20 20 19 19 18 17
16 13 10 6 2 1 1 1 2 2 1 1 2 2 2 1 1 2 2 1 1 3 5 6 8 8 7 6 6 6 4 3 2 3 4 4 2 2 3 3 2 3 3 3 4 4 3 3 5 6 9 13 14 14 17 17 13 12 15 16 12 12 14 12 7 5 5 5 5 6 9 12 15 18 19 20 20 21 20 19 19 18 18 18 18 17 17
12 9 6 4 2 1 1 1 2 2 2 2 2 2 2 2 3 3 3 3 4 7 9 9 10 10 10 8 6 5 3 3 3 3 3 4 3 3 3 3 2 3 3 3 4 3 3 3 4 6 10 13 15 16 17 15 11 11 15 14 11 11 12 8 5 5 6 7 10 14 18 21 22 23 22 22 21 20 20 18 17 17 17 17 17 17 16
9 6 5 3 2 1 1 1 2 1 2 2 2 2 3 4 5 5 5 5 7 9 10 9 10 10 10 8 5 4 3 4 4 3 2 3 4 3 2 2 3 3 3 3 4 4 4 5 6 8 11 15 17 17 16 13 9 10 13 12 10 9 9 6 5 7 9 13 16 18 19 19 19 20 20 20 19 18 18 17 16 16 16 16 16 16 15
7 5 3 2 2 2 2 2 2 1 1 2 3 3 4 4 6 7 6 7 8 8 8 8 9 9 8 7 6 5 4 4 4 3 3 4 4 3 1 2 3 3 3 4 5 4 4 6 7 9 13 16 17 17 15 10 8 9 11 10 7 7 5 4 8 12 14 14 14 15 16 15 15 16 17 18 17 16 15 15 15 16 16 16 16 15 15
5 4 3 2 2 2 2 1 1 3 4 4 4 4 4 5 7 8 8 8 8 7 7 7 8 7 6 5 5 6 5 4 4 4 3 3 3 2 2 3 3 3 3 4 5 4 6 8 9 10 13 15 16 15 13 9 7 9 11 8 5 4 3 6 12 15 14 11 10 13 16 16 15 15 15 16 15 13 12 13 14 15 15 15 15 15 16
5 3 3 3 3 4 4 4 4 6 7 7 6 6 6 8 9 9 8 7 6 7 7 6 6 6 4 3 4 5 5 4 3 2 3 3 3 3 3 4 5 4 4 4 4 5 8 10 9 10 13 15 15 14 12 8 5 7 9 8 5 3 2 8 13 15 14 12 11 12 12 12 11 10 11 13 14 13 13 13 13 13 13 14 14 14 15
5 5 5 5 5 5 5 5 5 6 7 7 7 7 8 9 10 8 6 5 6 7 7 7 7 5 4 4 4 4 4 4 4 4 5 5 4 3 4 5 5 4 4 4 6 8 10 10 9 10 12 14 14 13 11 6 4 5 7 6 5 3 2 9 13 15 15 13 12 10 8 7 6 7 9 12 13 14 14 13 12 12 13 13 12 13 13
4 5 6 8 8 7 7 7 7 7 7 8 10 9 8 9 10 8 5 5 6 7 6 6 6 4 4 4 4 3 2 3 3 5 5 5 4 4 5 6 5 5 6 7 8 9 10 10 9 9 11 13 12 12 10 6 4 4 5 4 3 3 2 8 13 14 14 14 12 10 8 5 5 7 10 11 11 11 11 12 11 11 11 11 11 12 13
5 5 6 8 11 11 11 11 11 11 11 11 11 10 9 10 10 8 6 6 7 8 7 6 5 4 4 4 4 3 3 3 3 4 5 4 5 5 6 7 7 7 9 9 10 10 11 11 10 10 11 11 10 11 9 5 4 2 3 2 1 1 2 8 12 14 15 15 14 11 8 6 7 9 10 9 7 7 8 9 9 9 10 10 11 12 13
Wind_Direction
8 8 8 6 3 1 359 357 354 352 352 354 359 4 1 313 305 306 297 280 199 211 234 210 207 232 257 44 211 115 275 247 229 217 238 247 238 231 231 235 245 241 245 254 243 241 251 246 246 252 222 158 84 63 36 256 239 253 269 165 121 180 258 257 253 255 259 207 128 142 171 244 260 251 256 275 276 276 275 279 289 276 262 265 261 261 249
11 10 10 8 5 3 1 360 359 357 355 354 359 3 344 316 309 324 337 326 195 217 247 235 223 199 140 193 196 162 261 292 274 253 265 300 267 256 244 226 254 250 226 249 246 232 234 235 232 245 228 149 90 60 36 252 236 257 335 12 137 222 248 251 259 256 244 221 200 191 190 214 247 251 242 282 281 280 278 275 277 263 260 264 262 263 261
13 12 11 11 8 5 3 2 2 1 357 354 359 -0 337 309 265 26 10 21 137 175 9 324 251 139 146 203 187 170 176 89 13 312 326 0 304 278 289 302 271 248 217 236 237 223 240 244 216 213 209 146 114 79 49 303 231 63 26 359 211 253 264 247 258 259 249 246 242 241 243 228 232 243 227 246 262 260 263 268 259 250 258 259 255 266 270
13 12 12 13 11 8 6 4 4 4 3 1 7 9 352 320 333 48 22 37 66 76 51 15 324 94 161 198 143 254 212 129 59 319 297 46 336 286 302 289 255 235 222 233 231 215 223 239 230 217 204 160 131 109 84 65 74 73 41 2 220 253 265 250 255 261 265 273 281 334 344 293 269 262 243 230 232 245 259 265 259 263 268 257 250 262 261
14 13 12 13 14 11 9 8 6 7 13 19 21 18 9 352 8 5 356 34 60 80 60 30 24 44 324 272 97 321 244 180 116 138 47 36 13 280 283 254 246 235 226 233 234 217 208 220 230 225 212 168 129 132 183 129 79 110 123 293 240 249 255 248 253 258 265 276 284 305 313 282 275 274 262 249 235 236 245 252 262 278 276 260 262 268 260
14 14 12 14 16 14 13 12 10 11 16 21 25 28 27 36 56 26 11 2 26 47 33 15 19 54 3 322 40 5 282 289 47 72 38 19 348 287 226 190 247 255 243 242 227 214 213 213 212 206 203 188 160 163 184 165 137 203 200 184 261 261 261 255 255 260 264 270 273 274 271 266 267 267 264 262 253 246 245 247 256 265 261 262 284 285 264
15 15 14 15 17 18 17 16 17 18 18 21 39 58 39 34 55 39 26 30 29 20 0 340 348 39 20 34 53 14 23 55 48 23 345 1 50 326 236 160 56 35 258 259 235 216 231 212 194 194 194 197 206 210 197 174 181 206 201 124 8 275 272 266 264 267 269 268 265 261 257 259 261 259 258 259 259 255 252 251 254 258 260 265 279 278 262
15 14 14 15 17 20 21 19 21 22 21 32 52 60 51 37 30 4 344 40 45 22 2 329 281 60 17 37 63 42 40 50 57 42 10 2 37 359 312 105 50 37 48 305 119 54 9 351 82 14 256 197 221 247 249 208 193 203 228 168 154 251 278 314 276 271 269 266 262 255 253 258 259 258 257 258 258 254 253 255 254 254 261 264 264 264 260
15 14 15 15 16 20 22 22 24 24 28 42 50 53 52 44 33 1 315 9 21 0 13 348 290 71 49 28 42 45 45 40 45 67 40 23 34 20 359 26 47 87 87 72 61 39 4 343 357 338 301 298 307 282 306 299 237 229 255 240 187 234 262 263 259 265 268 262 256 256 265 270 265 258 253 250 250 251 252 253 245 241 253 260 258 260 266
15 14 15 15 15 19 21 24 25 25 33 46 46 44 42 35 30 17 324 308 18 352 4 3 314 65 49 24 28 26 31 36 16 109 73 49 38 24 4 354 309 215 108 60 26 359 336 320 318 308 295 298 295 277 276 281 272 268 266 251 235 250 265 266 260 266 274 270 262 276 287 278 267 255 240 237 243 251 253 252 250 246 248 255 258 263 286
15 14 15 14 14 17 20 25 27 25 33 44 43 37 35 31 27 8 312 264 48 0 339 27 31 59 36 14 25 19 8 26 12 335 120 80 36 15 7 350 307 250 55 17 344 327 316 304 295 284 275 269 263 261 263 260 258 259 260 256 252 251 259 267 265 265 269 266 256 283 268 260 267 23 175 240 254 261 261 261 264 263 261 270 278 281 290
15 14 14 14 13 16 18 23 28 30 34 43 45 39 33 31 27 359 317 322 44 7 5 53 41 26 15 356 353 7 5 14 14 354 343 58 37 17 18 8 339 3 11 345 327 316 299 276 254 243 247 250 250 250 253 253 249 247 246 250 250 241 246 256 259 260 265 264 226 252 258 257 64 73 83 34 298 285 279 279 287 299 295 289 290 291 287
14 14 15 14 13 15 17 20 27 32 34 39 44 39 33 34 33 7 332 333 40 22 15 75 76 31 14 4 345 350 7 2 10 20 349 7 34 35 37 26 356 345 341 331 321 305 278 256 248 246 242 241 245 246 245 246 246 237 231 238 244 242 245 253 254 250 254 254 238 243 270 357 11 222 153 152 250 251 260 255 205 76 2 306 312 317 318
12 14 14 14 13 13 16 19 24 31 33 37 41 37 32 36 39 26 356 341 43 54 353 133 92 38 7 5 344 311 295 340 292 152 79 20 7 17 20 5 343 329 324 318 303 278 264 262 260 257 249 238 240 247 241 236 241 239 231 230 233 241 248 250 249 246 249 257 255 256 276 287 268 240 167 43 290 275 276 264 216 95 51 349 349 344 348
10 13 13 13 13 12 13 16 20 26 30 35 40 36 30 33 37 37 18 343 340 91 52 16 20 353 338 358 349 320 294 309 283 237 133 112 19 5 1 342 329 315 308 300 279 259 257 265 261 256 256 250 247 257 249 223 208 219 234 230 220 230 243 245 247 246 244 258 266 264 267 274 279 103 93 59 3 332 304 278 240 109 64 18 355 343 336
9 10 11 12 12 11 12 13 15 21 25 29 35 34 30 30 33 37 30 347 318 40 59 35 358 320 318 357 4 347 346 353 336 296 180 133 44 14 5 342 325 309 292 270 256 261 252 242 247 252 255 255 253 259 263 246 209 152 175 208 201 213 237 243 249 252 246 255 264 262 263 275 56 89 87 62 43 346 279 254 236 51 29 11 348 335 326
8 8 9 10 11 11 12 12 11 16 21 25 29 28 25 25 28 35 33 348 329 41 67 27 328 295 298 345 41 10 355 349 343 310 284 37 22 5 358 350 339 317 305 270 236 241 246 236 247 256 255 260 262 260 266 258 240 198 178 195 197 205 226 232 241 248 247 249 256 262 269 287 61 76 50 60 71 335 259 243 237 7 358 350 340 324 321
7 8 8 8 9 10 12 12 11 13 17 23 24 19 21 26 28 35 33 339 329 71 82 8 346 340 8 18 8 6 351 328 321 314 285 15 22 359 353 355 3 58 321 290 242 240 251 244 254 264 261 222 245 265 279 269 245 239 229 225 224 223 229 236 244 250 250 250 255 263 269 342 73 62 52 67 123 229 252 257 302 344 334 338 335 314 306
7 8 7 7 9 10 11 12 12 14 17 22 23 14 18 26 27 31 36 359 336 26 28 354 356 102 37 19 358 2 0 335 327 320 283 137 23 345 320 343 8 354 335 302 253 252 263 250 252 273 265 227 183 271 281 273 255 261 260 255 253 246 240 243 246 251 255 254 258 265 265 81 73 59 67 73 240 242 277 315 312 313 320 329 326 311 301
8 8 8 7 8 9 11 11 12 16 19 23 26 16 14 22 22 23 28 8 335 353 33 33 79 140 81 24 7 346 345 357 356 339 332 31 1 326 257 165 27 353 352 350 297 280 279 261 253 288 271 263 32 316 277 259 257 272 271 265 265 266 261 254 248 253 261 253 253 264 260 91 62 25 56 76 309 307 324 312 297 308 320 318 311 306 298
8 9 9 9 8 7 8 9 11 17 23 29 34 25 12 16 18 16 17 8 338 326 5 30 75 167 232 308 339 327 323 338 345 342 350 5 349 332 323 67 20 5 13 3 0 68 334 290 297 296 274 271 286 280 284 276 255 233 277 281 273 260 262 268 265 266 263 249 251 283 243 99 14 336 311 306 313 315 314 303 296 303 309 304 299 297 293
6 9 11 11 8 6 6 7 11 18 28 37 40 28 12 12 12 11 14 17 4 357 7 32 71 83 256 250 223 230 313 315 311 322 335 341 351 6 29 30 28 35 13 340 321 79 25 291 300 296 275 269 267 268 284 280 265 223 187 262 268 264 307 301 288 282 282 271 279 303 299 289 304 312 301 299 303 303 302 297 292 295 298 296 292 290 289
2 5 9 10 7 4 3 5 10 18 29 43 43 30 18 16 14 14 19 26 32 54 70 79 83 74 57 33 253 254 297 297 291 312 323 318 327 20 37 22 28 45 25 357 353 1 346 326 331 315 292 287 284 275 267 261 267 276 268 265 269 273 295 300 284 280 286 277 271 279 285 287 294 297 292 293 293 293 295 292 288 289 291 292 291 289 288
3 2 5 6 5 4 2 2 8 16 26 44 46 36 26 22 19 18 20 20 11 21 84 97 100 63 24 342 299 288 286 283 282 289 299 304 307 314 44 37 16 3 40 29 6 337 313 314 316 296 291 301 289 280 276 266 268 286 283 274 272 272 295 294 278 275 283 278 269 278 287 291 295 294 291 289 286 283 286 288 291 293 291 289 290 290 289
5 2 1 2 3 2 359 358 2 10 20 39 44 36 30 20 18 20 22 16 0 337 4 99 94 350 344 354 352 324 290 278 287 292 295 293 285 283 300 329 322 314 331 352 334 302 288 288 275 268 281 305 299 288 291 273 273 296 287 278 286 6 34 300 278 274 276 278 283 287 289 290 292 290 287 287 288 290 288 287 288 291 291 290 288 287 286
4 1 358 358 359 356 353 351 351 -0 15 33 42 42 42 25 21 25 25 11 352 326 342 59 51 3 6 49 58 344 310 310 314 308 306 301 283 273 276 281 287 294 295 293 294 289 284 283 281 276 272 223 248 276 280 275 277 280 278 282 295 314 304 290 292 289 278 275 284 293 295 293 291 289 288 290 293 295 294 292 290 289 289 289 285 282 280
3 359 355 355 355 352 348 346 341 347 8 26 38 49 49 27 24 28 26 16 2 323 334 25 37 29 57 98 21 339 331 329 325 315 310 309 297 284 278 272 273 279 279 274 270 268 269 268 261 267 276 278 273 273 274 279 283 276 272 280 292 292 287 292 297 288 280 288 304 310 306 296 292 294 295 295 296 296 296 295 293 290 289 287 285 283 279
1 357 354 354 352 349 346 343 334 332 0 22 39 51 43 25 23 25 23 21 22 2 326 329 339 26 98 107 22 340 317 315 321 315 309 311 307 300 289 274 265 263 265 268 267 260 261 269 273 280 290 289 282 278 273 273 277 273 275 296 307 300 300 304 298 289 290 300 306 306 299 292 292 294 294 295 297 299 297 294 291 289 289 288 287 285 282
358 355 355 354 352 350 348 345 334 316 352 19 38 34 19 20 17 18 17 15 18 8 320 299 269 81 54 53 33 7 343 336 340 358 43 31 15 346 304 270 261 261 257 259 269 272 275 282 289 296 288 253 261 291 288 277 278 278 290 316 322 309 301 300 298 296 296 298 303 304 298 294 294 294 293 294 296 298 297 293 290 288 289 289 288 286 283
356 354 355 355 354 352 351 351 343 298 359 31 42 13 350 13 5 8 10 6 6 4 329 310 16 84 51 34 29 21 18 24 30 49 72 47 14 354 311 260 251 254 248 245 258 276 286 286 286 290 265 234 254 285 291 286 290 293 306 323 321 308 301 300 298 297 298 300 304 303 297 294 294 292 291 291 292 293 294 293 293 292 291 290 288 286 282
353 353 354 356 356 355 355 358 0 332 27 39 30 356 350 4 354 356 359 -0 2 3 333 313 350 115 80 34 28 19 14 32 30 24 21 347 345 351 339 280 249 242 253 261 263 271 284 291 290 286 243 219 244 279 294 289 288 299 321 331 323 309 305 304 301 299 299 300 302 300 296 295 294 292 290 291 293 295 295 295 295 295 292 289 287 285 283
352 352 353 357 359 358 359 5 12 32 38 33 16 5 4 354 346 346 350 356 1 0 334 315 293 137 327 26 32 20 12 24 19 4 354 353 350 341 314 303 290 257 261 273 272 270 278 286 290 293 274 218 246 276 289 286 289 307 321 324 317 310 308 308 305 303 301 302 302 299 295 293 293 292 292 295 297 297 296 295 296 296 294 291 289 288 286
355 353 352 356 1 2 7 17 12 339 359 359 354 356 345 334 334 337 343 351 357 359 358 343 283 11 8 285 45 22 13 12 5 355 355 13 358 336 305 307 304 253 249 269 274 278 284 278 283 293 291 212 257 280 289 293 308 323 323 318 316 314 311 308 305 303 303 304 301 294 288 289 292 294 295 295 295 295 295 295 296 295 293 290 290 289 288
357 355 351 354 360 0 8 21 14 344 355 2 354 330 314 311 317 321 329 346 351 350 12 2 275 301 15 220 115 26 12 2 1 359 358 5 356 342 325 313 276 221 243 293 285 277 277 280 288 292 267 209 256 278 293 315 329 328 322 317 316 314 311 308 306 305 305 304 300 294 292 294 296 298 298 297 295 296 298 298 297 294 292 291 292 293 293
359 358 354 352 354 356 3 14 24 37 31 356 322 313 308 306 310 312 320 343 344 317 4 354 297 333 7 345 41 20 3 351 357 356 345 341 349 352 340 315 281 224 350 319 288 279 289 306 302 293 269 231 267 273 307 331 330 326 321 318 318 317 314 311 308 305 303 301 298 295 295 299 301 300 298 297 297 300 302 302 300 299 298 298 298 298 298
360 360 356 351 350 353 352 345 351 19 311 304 309 314 315 314 311 311 322 347 343 310 339 304 283 355 3 348 5 0 346 345 357 352 338 333 344 352 337 312 306 14 342 286 270 288 333 346 305 285 280 299 298 312 350 334 328 325 321 320 321 320 314 308 304 302 300 299 297 295 297 302 303 301 298 299 301 303 305 307 307 307 304 302 303 306 310
359 358 358 357 355 352 322 296 300 296 290 298 310 321 337 352 337 313 333 339 283 328 321 279 283 28 2 327 341 345 337 346 355 350 348 346 340 340 333 321 339 359 310 272 282 343 337 312 285 286 301 319 320 7 347 333 327 325 322 321 322 318 308 303 301 300 300 301 302 302 304 307 306 303 303 304 305 308 313 316 316 313 310 310 318 332 343
357 358 1 5 7 356 290 300 310 304 293 302 316 318 341 0 307 224 215 266 263 249 265 272 306 30 316 292 340 355 344 343 344 345 0 359 341 334 333 329 349 343 305 295 41 349 301 277 265 287 308 337 94 341 336 331 328 327 324 322 319 311 305 306 305 299 299 305 310 312 313 312 309 306 307 307 308 311 317 323 324 327 338 9 42 41 33
355 359 3 10 13 341 304 307 312 303 284 300 332 302 271 277 249 211 200 238 242 195 205 257 330 18 312 306 342 2 349 337 335 341 357 1 353 350 340 338 3 330 297 302 75 346 300 298 286 290 302 73 2 337 336 333 330 330 328 323 317 313 311 312 309 302 299 302 305 309 312 310 306 304 303 303 306 314 335 359 2 19 46 62 66 65 63
354 356 357 357 349 326 311 310 321 345 284 281 308 259 251 256 268 284 259 240 207 167 189 301 328 352 318 311 327 341 342 339 335 333 336 344 358 340 322 330 5 323 294 299 69 352 312 311 298 293 312 8 346 340 339 334 332 333 330 323 322 324 320 314 311 309 308 306 304 305 306 305 304 304 304 299 298 17 67 61 64 76 80 80 82 82 80
349 346 340 333 329 327 323 324 7 70 118 228 249 253 250 242 179 266 267 264 217 136 110 315 314 318 331 313 300 308 327 338 325 303 306 325 354 317 309 326 356 301 284 329 25 323 300 300 299 301 340 1 346 340 339 336 334 333 330 327 329 328 321 316 317 319 319 316 312 311 313 316 323 331 327 158 138 115 99 92 93 94 91 88 87 84 81
338 333 327 323 325 336 354 15 96 133 197 241 245 223 232 249 247 233 243 274 349 356 294 297 310 315 317 305 287 286 308 325 308 280 292 326 353 305 306 322 306 265 286 344 338 297 285 294 295 301 352 355 344 339 339 338 335 332 333 337 335 328 323 323 324 327 330 331 331 334 343 10 47 73 105 116 113 106 103 100 99 97 93 90 87 84 80
335 333 330 327 328 342 0 280 200 206 226 232 218 211 224 226 220 230 236 223 280 289 295 309 312 309 307 300 282 274 287 300 292 283 298 318 319 289 296 295 260 271 316 327 298 284 292 299 295 312 344 344 339 338 340 338 333 332 341 347 342 332 332 336 336 338 348 1 20 43 61 76 89 99 104 103 102 102 100 98 96 94 92 89 87 84 81
342 340 335 326 310 305 309 236 191 205 235 221 209 227 240 220 218 255 283 327 291 291 302 308 306 302 304 303 292 281 274 271 258 264 289 304 295 274 284 288 289 313 318 298 282 292 303 288 291 319 338 337 334 338 341 338 331 337 349 352 344 338 343 352 4 20 29 43 68 85 92 96 100 103 104 101 100 100 98 95 94 92 89 87 85 82 79
345 341 331 313 276 260 286 232 195 216 234 221 207 230 260 287 296 296 313 330 311 298 299 301 298 296 295 290 279 263 257 265 264 265 289 305 296 277 281 300 317 314 297 278 283 298 296 286 305 334 341 336 333 338 342 340 336 342 349 347 339 342 353 9 41 59 66 84 97 102 105 106 105 105 104 102 101 101 99 98 97 94 90 88 84 79 76
342 343 341 322 290 279 268 226 207 217 216 206 224 257 285 305 309 310 313 307 295 292 295 296 295 293 291 286 271 244 246 271 279 277 283 293 288 284 292 300 291 281 271 275 287 291 294 310 331 345 342 334 333 339 345 344 340 347 350 344 338 348 4 30 68 83 99 109 110 108 107 105 104 104 103 101 100 98 96 97 97 95 92 88 84 80 79
334 340 340 302 265 249 235 228 240 275 252 235 254 281 301 306 301 297 296 294 292 292 292 289 287 284 280 274 268 257 248 257 271 273 268 275 282 281 269 264 264 259 262 277 288 295 308 320 333 343 340 333 333 340 346 344 340 348 352 348 346 357 15 70 106 113 118 118 113 110 109 107 105 105 102 98 94 92 90 91 92 92 90 87 84 83 84
314 311 297 277 263 247 235 253 297 282 259 254 265 277 281 284 287 289 291 290 287 284 280 281 286 285 270 250 257 267 264 258 261 260 251 259 276 268 243 248 260 257 258 270 281 300 316 320 327 336 336 332 332 339 343 341 340 352 357 358 357 9 58 120 130 132 132 125 115 116 117 113 108 105 100 94 91 89 87 88 89 90 91 91 90 89 88
285 269 256 261 271 269 264 275 289 278 266 262 266 267 267 274 282 288 292 287 277 272 272 275 281 285 278 260 262 268 262 250 250 251 233 231 243 246 245 263 273 268 261 268 283 302 311 314 316 324 328 329 333 339 341 333 331 351 2 6 3 3 119 143 145 147 147 140 129 125 122 113 106 102 97 93 93 92 89 88 88 89 91 93 92 91 89
259 242 236 240 254 266 266 266 275 278 274 270 270 271 273 279 283 286 286 277 271 274 273 261 252 256 265 267 269 270 258 242 243 254 248 240 240 243 246 255 262 263 270 285 298 307 312 311 310 315 322 324 328 336 337 325 314 345 2 7 4 359 154 160 160 160 160 153 142 134 126 113 107 106 102 100 98 94 89 85 84 84 86 88 88 86 85
234 234 238 240 247 263 276 279 280 283 284 284 286 287 284 282 281 281 276 270 270 272 269 259 249 245 248 247 250 261 261 237 236 250 254 250 247 248 250 254 261 273 286 295 300 307 313 313 309 310 314 315 322 333 334 311 288 331 356 0 2 11 156 173 173 173 174 170 159 147 136 125 118 116 111 106 101 94 87 84 83 81 80 79 76 73 71
223 239 256 256 256 262 269 272 275 278 280 282 285 285 279 276 278 276 268 262 262 261 263 265 258 246 245 251 253 254 250 233 227 239 248 243 233 237 253 268 276 280 287 294 299 305 311 312 309 307 306 306 315 330 330 296 266 309 2 13 20 46 159 182 186 185 184 180 173 164 157 144 127 118 114 112 109 101 92 85 78 72 68 64 59 55 53